Date String (YYYY-MM-DD hh:mm:ss) UTC,Instrument flags,Ambient pressure (hPa),Sample flow (lpm),Bypass flow (lpm),Sample temperature (°C),Ambient temperature (°C),ASC tube jacket temperature (°C),LED temperature (°C),Box temperature (°C),Sample RH (%),Span deviation,Mass concentration (μg/m³),Mass concentration (μg/m³),Mass concentration (μg/m³)
DateTimeUTC,F1_M11,P_M11,Q1_M11,Q2_M11,T1_M11,T2_M11,T3_M11,T4_M11,T5_M11,U1_M11,ZSPAN_M11,X0_M11,X2_M11,X1_M11
2023-01-02 10:00:00,,0817.4,4.99,0.00,22.5,21.2,00.0,31.4,24.3,16.9,0000.7,0009.52,0006.89,0006.61
2023-01-02 10:01:00,,0817.5,4.99,0.00,22.5,21.2,00.0,31.4,24.3,17.0,0000.4,0009.60,0006.90,0006.62
2023-01-02 10:02:00,,0817.5,4.99,0.00,22.5,21.1,00.0,31.4,24.3,17.0,0000.5,0009.63,0006.91,0006.63
2023-01-02 10:03:00,,0817.5,5.02,0.00,22.5,21.2,00.0,31.4,24.3,17.0,0000.0,0009.65,0006.92,0006.64
2023-01-02 10:04:00,,0817.5,4.98,0.00,22.5,21.2,00.0,31.4,24.3,17.0,-000.2,0009.60,0006.90,0006.63
2023-01-02 10:05:00,,0817.4,4.96,0.00,22.5,21.1,00.0,31.4,24.3,17.0,0000.1,0009.58,0006.87,0006.61
2023-01-02 10:06:00,,0817.4,5.03,0.00,22.5,21.2,00.0,31.4,24.3,17.0,-000.0,0009.58,0006.87,0006.60
2023-01-02 10:07:00,,0817.4,5.05,0.00,22.5,21.2,00.0,31.4,24.3,17.0,-000.3,0009.60,0006.85,0006.58
2023-01-02 10:08:00,,0817.3,5.00,0.00,22.5,21.2,00.0,31.4,24.2,17.0,-000.4,0009.43,0006.74,0006.52
2023-01-02 10:09:00,,0817.4,4.98,0.00,22.4,21.2,00.0,31.4,24.2,17.4,-000.9,0009.26,0006.65,0006.45
2023-01-02 10:10:00,,0817.5,4.99,0.00,22.4,21.2,00.0,31.4,24.2,17.4,-000.7,0009.12,0006.57,0006.39
2023-01-02 10:11:00,,0817.5,4.97,0.00,22.4,21.2,00.0,31.4,24.2,17.2,-000.1,0008.99,0006.48,0006.32
2023-01-02 10:12:00,,0817.5,5.01,0.00,22.4,21.2,00.0,31.3,24.2,17.1,-000.0,0008.92,0006.43,0006.26
2023-01-02 10:13:00,,0817.6,5.05,0.00,22.4,21.2,00.0,31.3,24.2,17.1,0000.0,0008.83,0006.36,0006.19
2023-01-02 10:14:00,,0817.6,5.00,0.00,22.4,21.2,00.0,31.3,24.2,17.1,0000.0,0008.73,0006.29,0006.12
2023-01-02 10:15:00,,0817.6,4.99,0.00,22.4,21.2,00.0,31.3,24.2,17.1,0000.0,0008.70,0006.21,0006.05
2023-01-02 10:16:00,,0817.5,4.97,0.00,22.4,21.2,00.0,31.3,24.2,17.1,0000.1,0008.62,0006.15,0006.00
2023-01-02 10:17:00,,0817.4,5.03,0.00,22.4,21.2,00.0,31.3,24.2,17.1,0000.4,0008.55,0006.09,0005.95
2023-01-02 10:18:00,,0817.5,5.03,0.00,22.4,21.2,00.0,31.3,24.2,17.1,0000.6,0008.45,0006.05,0005.92
2023-01-02 10:19:00,,0817.4,4.98,0.00,22.4,21.2,00.0,31.3,24.2,17.1,-000.0,0008.40,0006.03,0005.91
2023-01-02 10:20:00,,0817.5,4.97,0.00,22.4,21.1,00.0,31.3,24.2,17.1,-000.2,0008.48,0006.07,0005.93
2023-01-02 10:21:00,,0817.5,5.04,0.00,22.4,21.1,00.0,31.3,24.2,17.1,-000.2,0008.53,0006.09,0005.94
2023-01-02 10:22:00,,0817.5,5.03,0.00,22.4,21.1,00.0,31.3,24.2,17.1,-000.3,0008.56,0006.13,0005.98
2023-01-02 10:23:00,,0817.5,4.95,0.00,22.4,21.1,00.0,31.3,24.2,17.1,-000.3,0008.57,0006.16,0006.01
2023-01-02 10:24:00,,0817.5,5.00,0.00,22.4,21.1,00.0,31.3,24.2,17.1,-000.2,0008.64,0006.20,0006.04
2023-01-02 10:25:00,,0817.5,5.02,0.00,22.4,21.1,00.0,31.3,24.2,17.1,-001.3,0008.74,0006.27,0006.08
2023-01-02 10:26:00,,0817.5,5.04,0.00,22.4,21.1,00.0,31.3,24.2,17.1,0000.0,0008.66,0006.30,0006.12
2023-01-02 10:27:00,,0817.5,4.98,0.00,22.4,21.4,00.0,31.2,24.3,17.1,-000.1,0008.68,0006.33,0006.14
2023-01-02 10:28:00,,0817.5,4.97,0.00,22.5,22.2,00.0,31.2,24.5,17.0,-000.0,0008.69,0006.35,0006.17
2023-01-02 10:29:00,,0817.4,4.98,0.00,22.6,22.9,00.0,31.2,24.7,16.9,-000.3,0008.70,0006.38,0006.20
2023-01-02 10:30:00,,0817.3,5.02,0.00,22.7,22.7,00.0,31.3,24.7,16.8,-000.1,0008.78,0006.43,0006.23
2023-01-02 10:31:00,,0817.4,5.04,0.00,22.7,22.4,00.0,31.4,24.7,16.8,0000.4,0008.83,0006.46,0006.26
2023-01-02 10:32:00,,0817.3,4.99,0.00,22.7,22.1,00.0,31.4,24.6,16.8,-000.1,0008.86,0006.47,0006.29
2023-01-02 10:33:00,,0817.2,4.99,0.00,22.7,22.0,00.0,31.4,24.6,16.8,-000.9,0008.85,0006.48,0006.30
2023-01-02 10:34:00,,0817.2,4.98,0.00,22.7,21.8,00.0,31.4,24.6,16.8,-000.6,0008.86,0006.49,0006.32
2023-01-02 10:35:00,,0817.2,5.00,0.00,22.7,21.7,00.0,31.4,24.5,16.8,-000.5,0008.85,0006.50,0006.35
2023-01-02 10:36:00,,0817.0,5.02,0.00,22.7,21.7,00.0,31.4,24.5,16.8,-000.3,0008.82,0006.50,0006.37
2023-01-02 10:37:00,,0817.0,4.97,0.00,22.7,21.6,00.0,31.5,24.5,16.8,-000.4,0008.84,0006.51,0006.40
2023-01-02 10:38:00,,0817.0,4.96,0.00,22.7,21.5,00.0,31.5,24.5,16.8,-000.8,0008.86,0006.53,0006.42
2023-01-02 10:39:00,,0816.9,5.03,0.00,22.7,21.4,00.0,31.5,24.5,16.8,-000.8,0008.89,0006.55,0006.44
2023-01-02 10:40:00,,0816.9,5.03,0.00,22.7,21.4,00.0,31.5,24.5,16.7,-000.5,0008.92,0006.56,0006.46
2023-01-02 10:41:00,,0817.0,5.00,0.00,22.7,21.4,00.0,31.5,24.4,16.7,-000.6,0008.89,0006.55,0006.47
2023-01-02 10:42:00,,0816.9,4.96,0.00,22.7,21.3,00.0,31.5,24.4,16.7,-000.7,0008.84,0006.55,0006.49
2023-01-02 10:43:00,,0816.9,5.00,0.00,22.6,21.3,00.0,31.5,24.4,16.7,-000.2,0008.78,0006.55,0006.50
2023-01-02 10:44:00,,0816.9,4.98,0.00,22.6,21.2,00.0,31.5,24.4,16.8,-000.3,0008.81,0006.56,0006.50
2023-01-02 10:45:00,,0817.0,5.04,0.00,22.6,21.2,00.0,31.5,24.4,16.8,-000.1,0008.82,0006.56,0006.51
2023-01-02 10:46:00,,0816.9,5.06,0.00,22.6,21.2,00.0,31.5,24.4,16.8,0000.1,0008.81,0006.55,0006.50
2023-01-02 10:47:00,,0816.9,4.98,0.00,22.6,21.2,00.0,31.4,24.4,16.8,0000.1,0008.81,0006.56,0006.50
2023-01-02 10:48:00,,0816.9,4.97,0.00,22.6,21.2,00.0,31.4,24.4,16.8,-000.3,0008.85,0006.58,0006.50
2023-01-02 10:49:00,,0816.9,5.07,0.00,22.6,21.3,00.0,31.4,24.3,16.9,0000.2,0008.92,0006.61,0006.52
2023-01-02 10:50:00,,0816.9,4.99,0.00,22.6,21.3,00.0,31.4,24.3,16.9,-000.0,0008.99,0006.64,0006.54
2023-01-02 10:51:00,,0817.0,5.02,0.00,22.6,21.3,00.0,31.4,24.3,16.9,0000.1,0009.02,0006.65,0006.54
2023-01-02 10:52:00,,0817.0,4.95,0.00,22.5,21.3,00.0,31.4,24.3,16.9,0000.2,0009.09,0006.68,0006.55
2023-01-02 10:53:00,,0817.0,4.98,0.00,22.5,21.2,00.0,31.4,24.3,17.0,0000.2,0009.11,0006.69,0006.55
2023-01-02 10:54:00,,0817.0,5.02,0.00,22.5,21.2,00.0,31.4,24.3,17.0,-000.0,0009.12,0006.71,0006.56
2023-01-02 10:55:00,,0817.1,5.01,0.00,22.5,21.2,00.0,31.4,24.3,17.0,0000.3,0009.13,0006.72,0006.55
2023-01-02 10:56:00,,0817.0,4.96,0.00,22.5,21.2,00.0,31.4,24.3,17.0,0000.2,0009.12,0006.72,0006.56
2023-01-02 10:57:00,,0817.0,5.04,0.00,22.5,21.2,00.0,31.4,24.3,17.0,0000.2,0009.11,0006.73,0006.57
2023-01-02 10:58:00,,0817.0,5.03,0.00,22.5,21.2,00.0,31.4,24.3,17.0,0000.7,0009.15,0006.76,0006.59
2023-01-02 10:59:00,,0817.1,4.97,0.00,22.5,21.2,00.0,31.4,24.3,17.1,0000.9,0009.18,0006.78,0006.62
